Find Starlink 11085

NORAD ID: 59425 Int'l Des: 2024-065 Owner: SPXS Country: US Constellation: starlink operational
又名: STARLINK-11085 [DTC] celestrak
LEOCIRCULAR

当前视图

正在加载3D地球...

About Starlink 11085

Starlink 11085 (NORAD 59425) is a starlink constellation satellite (v2 mini d2c) launched Apr 7, 2024 by SPXS of US. It operates in LEO, CIRCULAR orbit with a mass of 960.00 kg.

即将过境

Passes for default location (London). Set your location on the main map for personalized predictions.

高度历史

Loading altitude history...

两行轨道根数

1 59425U 24065E 26265.29625398 .00000127 00000-0 59046-5 0 9996
2 59425 53.1588 204.5931 0000909 65.1665 294.9448 15.69704343142355
Epoch: Sep 22, 2026 • Age: 23 hours

当前状态

高度 359.7 km
远地点 / 近地点 N/A
速度 7.70 km/s
星下点 18.32°N, 120.11°E
发射日期 Apr 7, 2024
运行时间 2.4 years
类型 internet

技术详情

分类 Payload
质量 960.00 kg
干质量 910.00 kg
长度 0.30 m
跨度 29.00 m
形状 ? Box + pan
制造商 SPXS
平台类型 Starlink V2MD
阶段状态 In Orbit
所有者/国家 SPXS/US

Most Searched